Starlink 11422

operational
NORAD ID: 61944 Int'l Des: 2024-209 Owner: SPXS Country: US Constellation: starlink
LEOCIRCULAR

关于 Starlink 11422

正在加载描述...

实时位置

正在加载3D地球...

即将过境

高度历史

Altitude vs Time

uPlot chart will show altitude changes over time

两行轨道根数

1 61944U 24209F 25258.27329918 .00466901 00000-0 36187-2 0 9997
2 61944 53.1575 156.2310 0000683 101.6082 258.5013 15.69889554 49125
Epoch: Sep 15, 2025 • Age: 16 hours

当前状态

高度 372.5 km
速度 7.69 km/s
星下点 -43.86°S, 40.69°E
发射日期 Nov 14, 2024
运行时间 0.8 years
类型 internet

技术详情

分类 Payload
质量 960.00 kg
干质量 910.00 kg
总质量 960.00 kg
长度 0.30 m
直径 4.10 m
跨度 29.00 m
形状 Box + pan
制造商 SPXS
平台类型 Starlink V2MD
阶段状态 In Orbit
所有者/国家 SPXS/US

大型星座

Loading constellations...